User: anonymous   Login
Location: Peebles
(55.6412°N, 3.1714°W)
Time: 14:21:15
(UTC+01:00)
Language:

IRS-1A Rocket - Orbit

View from above orbital plane
View from above orbital plane
View from above satellite
View from above satellite

Ground track
Ground track

The orbit data is extracted from the following two-line orbital elements,

1 18961U 88021B   22177.15105049  .00000101  00000-0  96870-4 0  9994
2 18961  99.1035 231.9836 0053617 228.8907 190.3018 14.00600978752296
Epoch (UTC): 26 June 2022 03:37:30
Eccentricity: 0.0053617
inclination: 99.1035°
perigee height: 853 km
apogee height: 930 km
right ascension of ascending node: 231.9836°
argument of perigee: 228.8907°
revolutions per day: 14.00600978
mean anomaly at epoch: 190.3018°
orbit number at epoch: 75229

The dashed part of the orbit path shows where the satellite is in the earth's shadow,  

DLR